Flag for Germany Weather past 2 weeks in Leer, Lower Saxony, Germany

Now
45 °F

Passing clouds.


Feels Like: 44 °F
Forecast: 42 / 63 °F
Wind: 3 mph from Southwest

Location: Emden-Koenigspolder

Current Time: May 30, 2015 at 7:17:41 AM

Latest Report: May 30, 2015 at 7:00 AM


Visibility: 31 mi

Pressure: 29.74 "Hg

Humidity: 92%

Dew point: 43 °F

Location of LeerLocation

Historic Weather in Leer — Graph

°F

Leer temperature yesterday

Maximum temperature yesterday: 60 °F (at 1:00 PM)
Minimum temperature yesterday: 46 °F (at 4:00 AM)
Average temperature yesterday: 53 °F

Past Weeks' High & Low Weather Summary

 TemperatureHumidityPressure
High66 °F (May 22, 2:00 PM)95% (May 16, 3:00 PM)30.30 "Hg (May 16, 3:00 PM)
Low40 °F (May 15, 6:00 AM)44% (May 21, 4:00 PM)29.54 "Hg (May 18, 9:00 PM)
Average51 °F76%30.01 "Hg
* Reported May 15 6:00 AM — May 30 6:00 AM, Leer, Weather by CustomWeather, © 2015

Note: Actual official high and low records may vary slightly from our data, if they occured in-between our weather recording intervals... More about our weather records

Advertising

Leer weather history for previous 24 hours

 ConditionsComfort  
Time TempWeatherWind HumidityBarometerVisibility
6:00 AM
Sat, May 30
46 °FPassing clouds.5 mph84%29.72 "Hg34 mi
5:00 AM47 °FOvercast.5 mph83%29.70 "Hg43 mi
4:00 AM47 °FLight rain. Low clouds.7 mph89%29.69 "Hg31 mi
3:00 AM47 °FDrizzle. Low clouds.6 mph89%29.67 "Hg13 mi
2:00 AM49 °FLight rain. Low clouds.6 mph82%29.65 "Hg19 mi
1:00 AM49 °FDrizzle. Low clouds.8 mph79%29.64 "Hg31 mi
12:00 AM49 °FLight freezing rain. Low clouds.7 mph82%29.63 "Hg19 mi
10:00 PM
Fri, May 29
53 °FLight rain. Overcast.8 mph80%29.61 "Hg11 mi
9:00 PM53 °FLight rain. Overcast.7 mph80%29.60 "Hg14 mi
8:00 PM53 °FLight rain. Overcast.5 mph88%29.62 "Hg9 mi
7:00 PM53 °FLight freezing rain. Overcast.3 mph86%29.65 "Hg8 mi
6:00 PM53 °FOvercast.1 mph84%29.67 "Hg22 mi
4:00 PM51 °FRain. Low clouds.7 mph92%29.72 "Hg2 mi
3:00 PM54 °FLight rain. Overcast.6 mph76%29.71 "Hg7 mi
2:00 PM59 °FLight rain. Overcast.7 mph57%29.72 "Hg19 mi
1:00 PM60 °FOvercast.7 mph52%29.74 "Hg9 mi
12:00 PM59 °FOvercast.7 mph62%29.76 "Hg9 mi
10:00 AM54 °FOvercast.6 mph77%29.80 "Hg11 mi
9:00 AM53 °FOvercast.6 mph76%29.81 "Hg12 mi
8:00 AM49 °FOvercast.5 mph81%29.83 "Hg16 mi
7:00 AM48 °FOvercast.3 mph85%29.84 "Hg14 mi
Weather by CustomWeather, © 2015

See weather overviewHow to use our weather pages